Home   Weather   Thessaloniki   Past weeks
Flag for Greece

Past Weather in Thessaloniki, Greece — Yesterday and Last 2 Weeks

Now
75 °F

Passing clouds.


Feels Like: 75 °F
Forecast: 91 / 71 °F
Wind: 3 mph from North

Location: Thessaloniki Airport

Current Time: Jun 26, 2019 at 3:07:38 am

Latest Report: Jun 26, 2019 at 2:20 am


Visibility: N/A

Pressure: 30.01 "Hg

Humidity: 83%

Dew Point: 70 °F

Location of ThessalonikiLocation

Past Weather in Thessaloniki — Graph

°F

Thessaloniki Temperature Yesterday

Maximum temperature yesterday: 90 °F (at 3:50 pm)
Minimum temperature yesterday: 73 °F (at 5:50 am)
Average temperature yesterday: 80 °F

High & Low Weather Summary for the Past Weeks

 TemperatureHumidityPressure
High95 °F (Jun 14, 4:20 pm)89% (Jun 25, 7:50 am)30.04 "Hg (Jun 25, 7:50 am)
Low66 °F (Jun 11, 6:20 am)28% (Jun 14, 5:50 pm)29.77 "Hg (Jun 11, 5:20 pm)
Average80 °F59%29.89 "Hg
* Reported Jun 11 1:20 am — Jun 26 1:50 am, Thessaloniki. Weather by CustomWeather, © 2019

Note: Actual official high and low records may vary slightly from our data, if they occured in-between our weather recording intervals... More about our weather records

Advertising

Thessaloniki Weather History for the Previous 24 Hours

Scroll right to see more
 ConditionsComfort  
Time TempWeatherWind HumidityBarometerVisibility
1:50 am
Wed, Jun 26
75 °FPassing clouds.2 mph78%30.01 "HgN/A
1:20 am75 °FPassing clouds.3 mph78%30.01 "HgN/A
12:50 am75 °FPassing clouds.2 mph78%30.01 "HgN/A
12:20 am77 °FPassing clouds.2 mph74%30.01 "HgN/A
11:50 pm
Tue, Jun 25
77 °FPassing clouds.3 mph74%30.01 "HgN/A
11:20 pm77 °FPassing clouds.3 mph79%30.01 "HgN/A
10:50 pm77 °FPassing clouds.3 mph79%30.01 "HgN/A
10:20 pm79 °FThunderstorms. Passing clouds.8 mph79%30.01 "HgN/A
9:50 pm82 °FThunderstorms. Passing clouds.14 mph62%30.01 "HgN/A
9:20 pm86 °FPassing clouds.7 mph55%29.98 "HgN/A
8:50 pm86 °FLight rain. Scattered clouds.5 mph55%29.98 "HgN/A
8:20 pm84 °FScattered clouds.3 mph62%29.98 "HgN/A
7:50 pm86 °FScattered clouds.8 mph59%29.95 "HgN/A
7:20 pm86 °FThundershowers. Scattered clouds.8 mph59%29.95 "HgN/A
6:50 pm86 °FPassing clouds.12 mph59%29.95 "HgN/A
6:20 pm88 °FPassing clouds.14 mph55%29.95 "HgN/A
5:50 pm88 °FPassing clouds.15 mph55%29.98 "HgN/A
5:20 pm88 °FPassing clouds.14 mph55%29.98 "HgN/A
4:20 pm90 °FPassing clouds.14 mph46%29.98 "HgN/A
3:50 pm90 °FPassing clouds.15 mph46%29.98 "HgN/A
3:20 pm88 °FPassing clouds.12 mph49%30.01 "HgN/A
2:50 pm88 °FPassing clouds.13 mph49%30.01 "HgN/A
2:20 pm86 °FPassing clouds.10 mph59%30.01 "HgN/A
1:50 pm86 °FScattered clouds.13 mph59%30.01 "HgN/A
1:20 pm82 °FPassing clouds.10 mph62%30.01 "HgN/A
12:50 pm82 °FPassing clouds.12 mph62%30.01 "HgN/A
12:20 pm82 °FPassing clouds.12 mph58%30.01 "HgN/A
11:20 am77 °FScattered clouds.10 mph65%30.04 "HgN/A
10:50 am77 °FScattered clouds.9 mph65%30.01 "HgN/A
10:20 am77 °FScattered clouds.8 mph65%30.01 "HgN/A
9:50 am77 °FScattered clouds.8 mph65%30.01 "HgN/A
9:20 am73 °FScattered clouds.8 mph74%30.01 "HgN/A
8:50 am73 °FScattered clouds.9 mph74%30.01 "HgN/A
8:20 am73 °FScattered clouds.9 mph74%30.01 "HgN/A
7:50 am73 °FScattered clouds.9 mph89%30.01 "HgN/A
7:20 am73 °FScattered clouds.10 mph69%30.01 "HgN/A
6:20 am73 °FScattered clouds.9 mph74%29.98 "HgN/A
5:50 am73 °FPassing clouds.14 mph74%29.98 "HgN/A
5:20 am75 °FPassing clouds.18 mph69%29.98 "HgN/A
4:50 am75 °FPassing clouds.9 mph69%29.95 "HgN/A
4:20 am75 °FPassing clouds.10 mph78%29.95 "HgN/A
3:50 am75 °FPassing clouds.12 mph78%29.95 "HgN/A
3:20 am75 °FPassing clouds.3 mph78%29.95 "HgN/A
Weather by CustomWeather, © 2019

See weather overview